Flag for Vanuatu Weather past 2 weeks in Port Vila, Vanuatu

Now
77 °F

Passing clouds.


Feels Like: 78 °F
Forecast: 79 / 85 °F
Wind: 7 mph from East

Location: Bauerfield Efate

Current Time: Apr 1, 2015 at 9:09:27 PM

Latest Report: Apr 1, 2015 at 8:00 PM


Visibility: N/A

Pressure: 29.92 "Hg

Humidity: 83%

Dew point: 72 °F

Location of Port VilaLocation

Historic Weather in Port Vila — Graph

°F

Port Vila temperature yesterday

Maximum temperature yesterday: 82 °F (at 10:00 AM)
Minimum temperature yesterday: 73 °F (at 12:00 AM)
Average temperature yesterday: 77 °F

Past Weeks' High & Low Weather Summary

 TemperatureHumidityPressure
High86 °F (Mar 27, 11:00 AM)100% (Mar 24, 6:05 AM)29.98 "Hg (Mar 24, 6:05 AM)
Low66 °F (Mar 25, 12:00 AM)51% (Mar 20, 10:00 AM)29.83 "Hg (Mar 20, 3:00 PM)
Average77 °F83%29.90 "Hg
* Reported Mar 20 9:00 AM — Apr 1 7:00 PM, Port Vila, Weather by CustomWeather, © 2015

Note: Actual official high and low records may vary slightly from our data, if they occured in-between our weather recording intervals... More about our weather records

Advertising

Port Vila weather history for previous 24 hours

 ConditionsComfort  
Time TempWeatherWind HumidityBarometerVisibility
7:00 PM
Wed, Apr 1
79 °FPassing clouds.8 mph79%29.89 "HgN/A
6:00 PM81 °FPassing clouds.13 mph74%29.86 "HgN/A
5:00 PM82 °FScattered clouds.16 mph70%29.86 "HgN/A
4:00 PM81 °FScattered clouds.13 mph84%29.86 "HgN/A
2:00 PM86 °FBroken clouds.16 mph66%29.86 "HgN/A
1:00 PM84 °FPartly sunny.14 mph74%29.86 "HgN/A
12:00 PM84 °FPartly sunny.14 mph74%29.92 "HgN/A
11:00 AM81 °FPartly sunny.8 mph84%29.92 "HgN/A
9:00 AM84 °FScattered clouds.15 mph74%29.95 "HgN/A
8:00 AM81 °FScattered clouds.12 mph79%29.95 "HgN/A
7:00 AM77 °FScattered clouds.5 mph83%29.92 "HgN/A
6:00 AM73 °FPartly sunny.5 mph89%29.92 "HgN/A
5:00 AM72 °FPassing clouds.7 mph88%29.89 "HgN/A
4:00 AM72 °FPassing clouds.2 mph94%29.89 "HgN/A
3:00 AM72 °FPassing clouds.5 mph94%29.89 "HgN/A
2:00 AM72 °FPassing clouds.7 mph94%29.89 "HgN/A
1:00 AM73 °FPassing clouds.3 mph94%29.92 "HgN/A
12:00 AM75 °FPartly cloudy.8 mph89%29.92 "HgN/A
11:00 PM
Tue, Mar 31
75 °FPartly cloudy.7 mph89%29.95 "HgN/A
10:00 PM75 °FPassing clouds.8 mph94%29.92 "HgN/A
9:00 PM77 °FPassing clouds.8 mph83%29.92 "HgN/A
Weather by CustomWeather, © 2015

See weather overviewHow to use our weather pages